TIME,DELAY(SENSOR),PRES,OXYGEN,RAWTEMP,T(OPTODE),TCPHASE,FLUOR,BETA(BETA700),BETA(BETA412),BETA(BETA440),CDOM,C(CSC),ED(ED412.20),ED(ED444.00),ED(ED489.60),ED(ED554.30),LU(LU412.10),LU(LU443.90),LU(LU489.70),LU(LU554.70),COMP,TILTX,TILTY,CHECK
1350097763,5805,895.9899902343750000,35.4404907226562500,556.9296875000000000,4.5810089111328125,56.1823692321777340,56,100,100,78,82,15544,0,0,0,0,2147122880,2147775597,2147578313,2147571785,2505,3,13,16989
1350101359,5809,967.7500000000000000,40.5504417419433600,563.3513183593750000,4.3819870948791500,55.4633293151855500,55,106,102,77,81,15540,0,0,0,0,2147122624,2147774518,2147569472,2147570788,313,3,13,26451
1350104959,5811,974.6400146484375000,40.6504096984863300,563.6782226562500000,4.3718471527099610,55.4475517272949200,55,98,100,79,81,15537,0,0,0,0,2147124608,2147776228,2147572726,2147570560,3421,3,13,52726
1350108559,5811,975.4199829101562000,39.2263984680175800,564.1776733398438000,4.3563499450683590,55.6705093383789060,55,99,100,78,83,15542,0,0,0,0,2147127012,2147777316,2147574052,2147571611,3573,3,13,34613
1350112159,5812,974.8099975585938000,38.5461311340332000,564.9365234375000000,4.3328018188476560,55.7805213928222660,54,99,101,78,83,15541,0,0,0,0,2147121398,2147770596,2147571858,2147570194,3484,3,13,38813
1350115759,5811,981.9099731445312000,38.2912483215332000,564.7482299804688000,4.3386478424072270,55.8219718933105500,54,98,101,78,84,15541,0,0,0,0,2147123995,2147775506,2147577344,2147571337,198,3,13,20
1350119359,5808,984.9000244140625000,38.0954017639160160,564.4498901367188000,4.3479042053222660,55.8425407409668000,54,99,102,79,82,15540,0,0,0,0,2147122907,2147775990,2147574070,2147570614,3582,3,13,53681
1350122959,5808,988.3800048828125000,38.3973197937011700,564.4636230468750000,4.3474769592285160,55.8013801574707000,54,99,101,78,82,15539,0,0,0,0,2147122276,2147773586,2147575515,2147570944,235,3,13,3400
1350126559,5811,988.2100219726562000,38.3350105285644500,564.4382934570312000,4.3482627868652340,55.8098411560058600,55,98,100,77,83,15538,0,0,0,0,2147122788,2147776987,2147571355,2147569188,3041,3,13,58109
1350130159,5811,986.3499755859375000,37.8740196228027340,564.6049804687500000,4.3430900573730470,55.8840293884277340,54,100,100,79,83,15536,0,0,0,0,2147121526,2147775616,2147565321,2147570660,462,3,13,4659
1350133759,5809,988.4600219726562000,37.5789413452148440,565.1530761718750000,4.3260822296142580,55.9321784973144500,55,102,100,77,82,15535,0,0,0,0,2147124608,2147772854,2147569938,2147568859,3597,3,13,1768
1350137359,5810,983.9699707031250000,37.7884101867675800,564.7263183593750000,4.3393287658691410,55.8913688659668000,54,99,100,79,82,15535,0,0,0,0,2147121664,2147774912,2147577746,2147567067,326,3,13,7869
1350140959,5813,990.6599731445312000,38.3316612243652340,565.6655273437500000,4.3101792335510250,55.8223381042480500,56,99,100,79,83,15536,0,0,0,0,2147125412,2147776621,2147574454,2147567634,24,3,13,47401
1350144559,5808,986.4699707031250000,38.6485595703125000,566.2902832031250000,4.2907810211181640,55.7823715209960940,55,100,100,78,82,15534,0,0,0,0,2147123044,2147774646,2147574198,2147567808,288,3,13,15212
1350148159,5812,989.3300170898438000,39.1866989135742200,566.3350219726562000,4.2893939018249510,55.6996803283691400,56,97,100,79,83,15533,0,0,0,0,2147124461,2147775433,2147575085,2147570523,2403,3,13,4154
1350151759,5811,989.5800170898438000,38.9575805664062500,566.3582763671875000,4.2886710166931150,55.7362594604492200,54,100,101,77,82,15531,0,0,0,0,2147123373,2147770825,2147571008,2147571657,2921,3,13,53834
1350155359,5810,989.7899780273438000,38.2963104248046900,565.4655761718750000,4.3163809776306150,55.8265914916992200,54,99,99,79,84,15532,0,0,0,0,2147120850,2147772946,2147569517,2147571986,267,3,13,10173
1350158959,5811,993.0599975585938000,38.0461387634277340,565.6243286132812000,4.3114590644836430,55.8647689819335940,55,97,100,78,83,15533,0,0,0,0,2147123373,2147777060,2147573961,2147573467,73,3,13,55970
1350162559,5810,997.4799804687500000,38.1309013366699200,564.7324218750000000,4.3391361236572270,55.8444213867187500,55,98,100,78,82,15533,0,0,0,0,2147124205,2147776237,2147577618,2147571245,3105,3,13,52472
1350166159,5807,995.4799804687500000,37.5068588256835940,565.3939208984375000,4.3186068534851070,55.9468307495117200,55,99,102,78,83,15533,0,0,0,0,2147123062,2147772077,2147571867,2147570669,199,3,13,55451
1350169759,5811,987.3499755859375000,38.3917999267578100,566.4555053710938000,4.2856540679931640,55.8229408264160160,56,100,100,77,83,15534,0,0,0,0,2147124260,2147776731,2147572726,2147570422,3212,3,13,43618
1350173359,5810,996.4299926757812000,38.7259483337402340,565.9539184570312000,4.3012261390686035,55.7659492492675800,55,98,100,78,83,15534,0,0,0,0,2147124178,2147773970,2147571730,2147571648,3548,3,13,16943
1350176959,5810,987.5000000000000000,38.0749588012695300,565.7855834960938000,4.3064498901367190,55.8643112182617200,55,100,101,79,83,15532,0,0,0,0,2147123629,2147775643,2147573385,2147572214,638,3,13,15601
1350180559,5809,992.0399780273438000,38.3442497253418000,565.6994018554688000,4.3091259002685550,55.8169784545898440,56,97,100,77,82,15499,0,0,0,0,2147123529,2147773385,2147576073,2147572598,3542,3,13,28000
1350184159,5811,997.0800170898438000,38.1221313476562500,565.6871948242188000,4.3095049858093260,55.8562507629394500,55,97,101,79,83,15498,0,0,0,0,2147127469,2147773732,2147572260,2147572150,77,3,13,2409
1350187759,5813,992.4799804687500000,37.9478797912597660,566.0120239257812000,4.2994232177734375,55.8827018737793000,55,98,100,79,82,15498,0,0,0,0,2147123145,2147774098,2147573485,2147569298,796,3,13,35452
1350191359,5813,992.3200073242188000,37.8909988403320300,565.6500244140625000,4.3106579780578610,55.8867607116699200,56,99,100,77,82,15458,0,0,0,0,2147123584,2147774829,2147572004,2147569673,3489,3,13,13400
1350194959,5811,992.1199951171875000,37.5647201538085940,565.7164916992188000,4.3085961341857910,55.9388389587402340,55,98,101,78,83,15499,0,0,0,0,2147121307,2147776000,2147573485,2147567588,3418,3,13,48073
1350198559,5809,992.4799804687500000,38.2163200378418000,566.0651245117188000,4.2977728843688965,55.8457298278808600,56,99,100,78,82,15499,0,0,0,0,2147122550,2147774518,2147573513,2147568512,235,3,13,10816
1350202159,5810,999.9000244140625000,38.2294998168945300,566.0255126953125000,4.2990040779113770,55.8392181396484400,54,98,102,79,82,15494,0,0,0,0,2147125056,2147774582,2147573248,2147569316,126,3,13,8128
1350205759,5810,996.9500122070312000,38.2714881896972660,566.2144165039062000,4.2931389808654785,55.8388214111328100,55,99,102,78,83,15506,0,0,0,0,2147120905,2147773394,2147571986,2147570605,177,3,13,27692
1350209359,5808,1001.1199951171875000,37.8582191467285160,564.9916992187500000,4.3310909271240230,55.8862190246582000,55,103,102,77,82,15502,0,0,0,0,2147124726,2147773440,2147571986,2147572763,404,3,13,33805
1350212959,5812,996.3800048828125000,37.4804306030273440,566.0377807617188000,4.2986221313476560,55.9587707519531250,54,98,101,79,83,15502,0,0,0,0,2147121005,2147773787,2147574445,2147572059,15,3,12,2330
1350216559,5808,1005.0200195312500000,38.1009597778320300,565.8873291015625000,4.3032932281494140,55.8610191345214840,54,99,101,78,83,15504,0,0,0,0,2147125074,2147773677,2147577188,2147569572,404,3,13,12667
1350220159,5810,1000.4400024414062000,38.0704193115234400,565.1278076171875000,4.3268661499023440,55.8574905395507800,55,98,99,77,82,15500,0,0,0,0,2147125540,2147773083,2147579291,2147572717,3142,3,12,21162
1350223759,5809,996.4500122070312000,37.7474899291992200,565.6390991210938000,4.3109970092773440,55.9063186645507800,55,98,100,78,81,15503,0,0,0,0,2147118299,2147775424,2147576310,2147571757,164,3,13,24073
1350227359,5807,999.5100097656250000,37.7773399353027340,564.9675292968750000,4.3318419456481930,55.8954200744628900,55,98,101,78,82,15500,0,0,0,0,2147122925,2147772077,2147574107,2147573458,347,3,13,16999
1350230959,5811,995.2800292968750000,37.8192100524902340,566.7390747070312000,4.2768502235412600,55.9122314453125000,54,98,99,78,82,15503,0,0,0,0,2147124105,2147772278,2147579245,2147572077,29,3,13,65097
1350234559,5812,994.9400024414062000,38.7723808288574200,566.9290161132812000,4.2709522247314450,55.7658500671386700,55,98,101,78,81,15503,0,0,0,0,2147121874,2147771474,2147575488,2147571538,15,3,13,64224
1350238159,5811,998.1699829101562000,38.6037902832031250,566.8048706054688000,4.2748069763183590,55.7922706604003900,54,99,101,78,83,15504,0,0,0,0,2147123382,2147775387,2147575506,2147570614,96,3,13,2463
1350241759,5812,996.9000244140625000,39.0268592834472660,566.7606811523438000,4.2761797904968260,55.7312889099121100,55,98,99,77,83,15502,0,0,0,0,2147122029,2147776822,2147572315,2147573074,16,3,13,5065
1350242756,5809,997.0300292968750000,38.6127815246582000,566.7390747070312000,4.2768502235412600,55.7852592468261700,54,99,101,79,82,15501,0,0,0,0,2147124726,2147775158,2147571419,2147570560,3503,3,13,44809
